Location: Muenchen
(48.1800°N, 11.5800°E)
Time: 12:51:52
(UTC+02:00)

Cosmos 1455 - Visible Passes

Search period start: 29 June 2016 00:00
Search period end: 09 July 2016 00:00
Orbit: 503 x 530 km, 82.5° (Epoch: 28 June)

Date Brightness Start Highest point End Pass type
(mag) Time Alt. Az. Time Alt. Az. Time Alt. Az.
29 Jun 2.1 22:57:51 10° N 23:01:40 80° ENE 23:04:17 19° SSE visible
30 Jun 2.2 22:43:15 10° N 22:47:04 66° E 22:49:57 17° SSE visible
01 Jul 4.9 00:21:19 10° WNW 00:22:14 11° W 00:23:10 10° W visible
01 Jul 2.4 22:28:41 10° N 22:32:26 55° ENE 22:35:38 14° SSE visible
02 Jul 4.8 00:05:59 10° WNW 00:07:43 13° W 00:09:26 10° WSW visible
02 Jul 2.7 22:14:07 10° N 22:17:49 46° ENE 22:21:19 11° SSE visible
02 Jul 4.8 23:50:56 10° NW 23:53:10 15° W 23:55:24 10° WSW visible
03 Jul 2.9 21:59:34 10° N 22:03:11 38° ENE 22:06:47 10° SE visible
03 Jul 4.6 23:36:02 10° NW 23:38:38 18° W 23:41:14 10° SW visible
04 Jul 4.4 23:21:11 10° NW 23:24:05 21° W 23:26:58 10° SW visible
05 Jul 4.2 23:06:23 10° NW 23:09:31 24° W 23:12:39 10° SW visible
06 Jul 4.0 22:51:37 10° NNW 22:54:57 28° W 22:58:17 10° SSW visible
07 Jul 3.7 22:36:53 10° NNW 22:40:22 34° W 22:43:52 10° SSW visible
08 Jul 3.4 22:22:10 10° NNW 22:25:47 40° W 22:29:25 10° SSW visible
